FLOCK 4Q 16

导读

FLOCK 4Q 16是美国行星实验室研制的“鸽群”(Flock)系列对地观测卫星,于2023年11月11日发射升空。该卫星属于美国商业遥感卫星星座,采用三立方星标准设计,运行在近地太阳同步轨道,可提供高分辨率全球对地观测服务,主要用于全球测绘、环境监测、灾害评估与资源管理等领域,补充行星实验室现有卫星星座的观测能力,为各行业提供及时的遥感数据服务。

基本信息
目录编号:
58271
目录名称:
FLOCK 4Q 16
国际标识:
2023-174R
轨道中心:
EARTH
卫星名称:
FLOCK 4Q 16
卫星全名:
--
卫星状态:
在轨 (已飞行988 天)
发射日期:
2023-11-11 UTC
国别 :
美国 (US)
星等 :
--
轨道信息
数据来源 国际轨道数据
星历时间: 2026-07-26T13:23:30+0800
15小时前
查看轨道信息
半长轴: 6792.516km
偏心率: 0.0006163
轨道倾角: 97.382°
近地点辐角 43.109°
升交点赤经 296.279°
平近点角 317.065°
近地点: 410.192km
远地点: 418.566km
周期: 92.855分钟
每日圈数: 15.508035
详细信息
使用方式:
暂无
2D轨道图
3D轨道图
轨道高度分析图
轨道倾角分析图
轨道综合分析图
查看轨道综合分析图